Regional Weather Roundup
Issued by NWS Albany, NY

Home | Current Version | Previous Version | Text Only | Print | Product List | Glossary On
Versions: 1 2 3 4 5 6 7 8 9 10 11 12 13 14 15 16 17 18 19 20 21 22 23 24 25 26 27 28 29 30 31 32 33 34 35 36 37 38 39 40 41 42 43 44 45 46 47 48 49 50
000
ASUS41 KALY 290110
RWRALY

NEW YORK STATE HOURLY WEATHER ROUNDUP
NATIONAL WEATHER SERVICE ALBANY NY
900 PM EDT TUE JUL 28 2015

NOTE: "FAIR" INDICATES FEW OR NO CLOUDS BELOW 12,000 FEET WITH NO
SIGNIFICANT WEATHER AND/OR NO OBSTRUCTIONS TO VISIBILITY.

NYZ032-033-038>043-046>054-057>066-NYZ062>081-290200-
EAST


CITY           SKY/WX    TMP DP  RH WIND       PRES   REMARKS
ALBANY         MOCLDY    81  66  60 CALM      29.96S
GLENS FALLS    PTCLDY    75  68  78 N5        29.96R
POUGHKEEPSIE   PTCLDY    81  68  64 CALM      29.95R
NEWBURGH       PTCLDY    82  70  65 CALM      29.98R
MONTGOMERY     MOCLDY    78  70  76 CALM      29.97R
WHITE PLAINS   PTCLDY    79  67  66 S3        29.98R
ISLIP          PTCLDY    77  73  87 SW6       29.95R
NEW YORK CITY  PTCLDY    85  62  46 S6        29.95R
CENTRAL PARK   PTCLDY    84  62  47 CALM      29.99R
$$

NYZ005>009-017-018-044>046-055-056-290200-
CENTRAL


CITY           SKY/WX    TMP DP  RH WIND       PRES   REMARKS
FULTON         CLEAR     69  64  84 CALM      29.98S
SYRACUSE       PTCLDY    76  66  71 CALM      29.98S
ROME           CLEAR     75  63  66 CALM      29.99R
ELMIRA         CLEAR     75  68  78 N6        29.99S
BINGHAMTON     CLEAR     75  62  64 N7        30.04S
MONTICELLO     CLEAR     75  64  69 CALM      30.05R
$$

NYZ026>034-041>043-290200-
NORTH


CITY           SKY/WX    TMP DP  RH WIND       PRES   REMARKS
WATERTOWN      CLEAR     72  63  73 CALM      29.97R
FORT DRUM      NOT AVBL
MASSENA        CLEAR     75  66  73 CALM      29.94S
SARANAC LAKE   CLEAR     70  63  78 W3        30.02R
PLATTSBURGH    PTCLDY    75  71  87 CALM      29.93S
$$

NYZ001>004-010>016-019>021-290200-
WEST


CITY           SKY/WX    TMP DP  RH WIND       PRES   REMARKS
NIAGARA FALLS  MOCLDY    79  63  57 W3        29.97R
BUFFALO        PTCLDY    80  58  46 S6        29.98S
DUNKIRK        CLEAR     75  66  73 CALM      29.98S
JAMESTOWN      CLEAR     75  57  53 CALM      30.05S
WELLSVILLE     CLEAR     78  60  53 CALM      30.08S
ROCHESTER      MOCLDY    79  64  60 CALM      29.99R
PENN YAN       CLEAR     73  67  81 CALM      30.01S
$$

             KEY
       WCI = WIND CHILL INDEX
       VSB = VISIBILITY
       HX  = HEAT INDEX
$$


USA.gov is the U.S. government's official web portal to all federal, state and local government web resources and services.